Location: Huisseau
(47.5933°N, 1.4533°E)
Time: 23:19:50
(UTC+00:00)

Cosmos 1655 Rocket - Pass Details

Date: 08 August 2025
Orbit: 969 x 1006 km, 82.9° (Epoch: 22 April)

Event Time Altitude Azimuth Distance (km) Brightness Sun altitude
Exits shadow 21:21:38 11° 190° (S) 2,669 5.9 -17.4°
Maximum altitude 21:27:45 84° 278° (W) 998 4.0 -18.0°
Drops below altitude 10° 21:34:04 10° 8° (N) 2,743 7.0 -18.7°
Sets 21:36:34 0° 9° (N) 3,690 7.7 -18.9°
